THOR ABLESTAR DEB, 1943

Orbit data source: Space-Track

THOR ABLESTAR DEB, 1943 is space debris in LEO originally from a launch on Thu, 29 Jun 1961 UTC launched from the Air Force Eastern Test Range (AFETR). Debris objects in space refer to the collection of defunct objects orbiting the Earth. Examples of debris include non-operational satellites, rocket bodies, and fragments generated from explosions, collisions, or faulty payload assembly.

Loading next visibility...
Identifier
1943, 1961-015HT
Orbit
LEO
Country
Flag of USUS
Related business
Manufacturer
Unknown
Mission
Spacecraft
Bus & Motor
Unknown
Mass
Unknown
Launch date (UTC)
1961-06-29 (65 years ago)
Launch vehicle
Unknown
Launch site
Air Force Eastern Test Range (AFETR)
Object type
Payload
Rocket body
Debris
Shape & HBR
Unknown shape, 0.1 m
Radar Cross Section
Small (<0.1 m²)

Expand to show TLE details & history
Last TLE update: 11 hours ago

TLE from 11 hours ago
0 THOR ABLESTAR DEB
1  1943U 61015HT  26130.45593356  .00000714  00000-0  31695-3 0  9991
2  1943  66.8555 271.2678 0058555 315.5940  44.0470 14.27718304338776
Epoch: 2026-05-10T10:56Z
TLE epoch observation values (Epoch: 2026-05-10T10:56:32.659Z)
Latitude
-0.00005°
Longitude
-121.12706°
Altitude
771.393 km
Speed
7.484 km/s
True Right ascension
18h 05m 04s
True Declination
0° 00' 00"
Sunlit
Object was in full shadow at epoch
Visualization orbit readout
Latitude
Unknown
Longitude
Unknown
Altitude
Unknown
Speed
Unknown
Apparent Right ascension
Unknown
Apparent Declination
Unknown
Sunlit
N/A
Visualization observer readout
Local Sidereal Time
06:03:07
Azimuth
Unknown
Elevation
Unknown
Doppler factor
Unknown
Orbital elements
Apogee altitude
839.745 km
Perigee altitude
755.708 km
Semi-major axis
7,175.863 km
Eccentricity
0.00586
Inclination
66.8555°
RAAN
271.2678°
Arg. of periapsis
315.594°
True anomaly
44.51597°
Mean anomaly
44.047°
Eccentric anomaly
44.28124°
Mean motion
3.57052 °/min
Orbital period
100.83 mins
BSTAR
0.00031695
Loading maneuver chart data...
Computing Atmospheric mass density...

Documentation

Showing up to 5 results
|